QPF
0.00 0.00 0.00 0.00 0.00 0.01 0.01 0.01 0.01 0.02 0.05 0.10 0.16 0.20 0.26 0.26 0.13 0.07 0.04 0.02 0.01 0.01 0.01 0.02 0.02 0.02 0.01 0.01 0.00 0.00 0.00 0.01 0.01 0.01 0.01 0.01 0.00 0.00 0.00 0.00 0.00 0.01 0.01 0.01 0.01 0.01 0.01 0.01 0.00
0.00 0.00 0.00 0.00 0.00 0.01 0.00 0.01 0.02 0.04 0.03 0.13 0.21 0.23 0.27 0.18 0.07 0.03 0.03 0.02 0.01 0.01 0.01 0.01 0.02 0.02 0.01 0.01 0.00 0.00 0.00 0.00 0.01 0.00 0.00 0.00 0.00 0.00 0.00 0.00 0.00 0.00 0.00 0.00 0.00 0.00 0.00 0.00 0.00
0.00 0.00 0.00 0.01 0.01 0.01 0.01 0.00 0.02 0.06 0.03 0.06 0.12 0.11 0.14 0.13 0.07 0.06 0.06 0.02 0.01 0.01 0.01 0.01 0.01 0.01 0.01 0.01 0.00 0.01 0.00 0.00 0.00 0.00 0.00 0.00 0.00 0.00 0.00 0.00 0.00 0.00 0.00 0.00 0.00 0.00 0.00 0.00 0.00
0.00 0.00 0.00 0.01 0.01 0.01 0.01 0.00 0.01 0.03 0.04 0.03 0.04 0.06 0.08 0.08 0.11 0.15 0.09 0.04 0.03 0.02 0.01 0.01 0.02 0.02 0.02 0.01 0.01 0.01 0.01 0.00 0.00 0.00 0.00 0.00 0.00 0.00 0.00 0.00 0.00 0.00 0.00 0.00 0.00 0.00 0.00 0.00 0.00
0.00 0.00 0.00 0.00 0.00 0.00 0.00 0.00 0.01 0.01 0.02 0.02 0.03 0.05 0.08 0.07 0.12 0.15 0.10 0.04 0.03 0.02 0.02 0.02 0.02 0.02 0.02 0.01 0.01 0.01 0.01 0.01 0.00 0.00 0.00 0.00 0.00 0.00 0.00 0.00 0.00 0.00 0.00 0.00 0.00 0.00 0.00 0.00 0.00
0.00 0.00 0.00 0.00 0.00 0.00 0.00 0.00 0.00 0.01 0.01 0.01 0.02 0.02 0.04 0.10 0.22 0.22 0.17 0.08 0.04 0.02 0.02 0.02 0.03 0.03 0.03 0.02 0.01 0.01 0.01 0.01 0.01 0.01 0.00 0.01 0.01 0.01 0.01 0.01 0.01 0.01 0.01 0.00 0.00 0.00 0.00 0.00 0.00
0.00 0.00 0.00 0.00 0.00 0.00 0.00 0.00 0.00 0.00 0.00 0.01 0.01 0.03 0.04 0.09 0.23 0.27 0.27 0.32 0.15 0.06 0.03 0.03 0.05 0.04 0.04 0.04 0.03 0.02 0.01 0.01 0.01 0.01 0.01 0.01 0.01 0.01 0.02 0.02 0.02 0.01 0.01 0.01 0.01 0.00 0.00 0.00 0.00
0.00 0.00 0.00 0.00 0.00 0.00 0.00 0.00 0.00 0.00 0.00 0.00 0.01 0.03 0.05 0.12 0.27 0.24 0.26 0.28 0.15 0.08 0.06 0.05 0.05 0.06 0.06 0.06 0.05 0.04 0.03 0.02 0.02 0.02 0.02 0.02 0.01 0.02 0.03 0.03 0.02 0.03 0.02 0.02 0.02 0.01 0.01 0.01 0.01
0.00 0.00 0.00 0.00 0.00 0.00 0.00 0.00 0.00 0.00 0.00 0.01 0.01 0.03 0.05 0.07 0.20 0.20 0.19 0.17 0.12 0.09 0.07 0.06 0.05 0.07 0.06 0.06 0.06 0.06 0.06 0.05 0.05 0.04 0.05 0.04 0.03 0.03 0.04 0.04 0.04 0.04 0.04 0.03 0.03 0.02 0.02 0.02 0.01
0.00 0.00 0.00 0.00 0.00 0.00 0.00 0.00 0.00 0.00 0.00 0.01 0.02 0.03 0.05 0.08 0.14 0.21 0.20 0.16 0.10 0.08 0.07 0.06 0.08 0.09 0.08 0.07 0.08 0.08 0.08 0.08 0.08 0.07 0.07 0.05 0.02 0.03 0.05 0.06 0.09 0.09 0.08 0.07 0.07 0.06 0.04 0.03 0.02
0.00 0.00 0.00 0.00 0.00 0.00 0.00 0.00 0.00 0.00 0.00 0.01 0.02 0.03 0.06 0.11 0.16 0.21 0.25 0.26 0.17 0.10 0.08 0.08 0.14 0.15 0.12 0.10 0.10 0.08 0.07 0.07 0.06 0.07 0.07 0.07 0.07 0.08 0.08 0.08 0.10 0.09 0.09 0.09 0.08 0.07 0.06 0.04 0.03
0.00 0.00 0.00 0.00 0.00 0.00 0.00 0.00 0.00 0.00 0.01 0.02 0.04 0.06 0.09 0.12 0.15 0.21 0.23 0.19 0.20 0.17 0.17 0.18 0.19 0.20 0.18 0.13 0.12 0.10 0.09 0.09 0.09 0.10 0.11 0.10 0.11 0.10 0.08 0.07 0.08 0.08 0.08 0.08 0.07 0.07 0.06 0.05 0.05
0.00 0.00 0.00 0.00 0.00 0.00 0.00 0.00 0.00 0.01 0.01 0.03 0.05 0.08 0.11 0.12 0.13 0.15 0.15 0.18 0.25 0.23 0.19 0.21 0.22 0.18 0.14 0.12 0.12 0.13 0.11 0.10 0.11 0.10 0.10 0.08 0.09 0.09 0.08 0.07 0.07 0.06 0.05 0.06 0.06 0.06 0.06 0.06 0.05
0.00 0.00 0.00 0.00 0.00 0.00 0.00 0.01 0.01 0.01 0.02 0.03 0.07 0.11 0.15 0.20 0.20 0.18 0.20 0.25 0.27 0.25 0.25 0.22 0.23 0.19 0.17 0.17 0.15 0.14 0.13 0.13 0.12 0.10 0.09 0.08 0.07 0.07 0.08 0.07 0.08 0.07 0.06 0.04 0.03 0.02 0.03 0.04 0.04
0.00 0.00 0.00 0.00 0.00 0.00 0.00 0.01 0.02 0.02 0.02 0.05 0.09 0.18 0.20 0.21 0.26 0.25 0.24 0.29 0.34 0.32 0.30 0.30 0.30 0.20 0.17 0.16 0.17 0.13 0.13 0.13 0.09 0.07 0.08 0.07 0.05 0.06 0.07 0.08 0.07 0.06 0.07 0.06 0.04 0.03 0.03 0.04 0.05
0.00 0.00 0.00 0.00 0.00 0.01 0.00 0.01 0.02 0.02 0.03 0.06 0.09 0.15 0.20 0.23 0.22 0.24 0.26 0.29 0.31 0.31 0.33 0.25 0.25 0.20 0.19 0.17 0.13 0.10 0.10 0.08 0.06 0.07 0.06 0.06 0.06 0.06 0.06 0.05 0.04 0.05 0.05 0.05 0.06 0.05 0.05 0.06 0.06
0.00 0.00 0.00 0.00 0.00 0.00 0.00 0.00 0.01 0.01 0.03 0.06 0.10 0.15 0.19 0.24 0.30 0.30 0.30 0.30 0.28 0.26 0.22 0.18 0.21 0.18 0.15 0.13 0.09 0.07 0.07 0.05 0.05 0.05 0.04 0.04 0.04 0.05 0.05 0.05 0.04 0.04 0.04 0.04 0.04 0.05 0.05 0.05 0.05
0.00 0.00 0.00 0.00 0.00 0.00 0.00 0.01 0.01 0.02 0.03 0.07 0.10 0.14 0.19 0.21 0.27 0.34 0.36 0.36 0.29 0.25 0.18 0.14 0.16 0.13 0.09 0.07 0.06 0.04 0.03 0.03 0.03 0.03 0.03 0.03 0.03 0.03 0.04 0.04 0.03 0.02 0.02 0.03 0.03 0.05 0.05 0.03 0.03
0.00 0.00 0.00 0.00 0.00 0.01 0.00 0.01 0.02 0.03 0.04 0.08 0.14 0.15 0.18 0.23 0.23 0.28 0.34 0.32 0.30 0.27 0.22 0.16 0.12 0.08 0.04 0.03 0.02 0.03 0.02 0.01 0.01 0.02 0.02 0.02 0.01 0.01 0.02 0.02 0.02 0.01 0.01 0.01 0.02 0.02 0.03 0.02 0.02
0.00 0.00 0.00 0.00 0.00 0.00 0.01 0.01 0.01 0.03 0.04 0.07 0.13 0.16 0.19 0.23 0.23 0.18 0.19 0.21 0.23 0.22 0.19 0.13 0.08 0.05 0.03 0.01 0.01 0.01 0.01 0.01 0.00 0.00 0.00 0.01 0.01 0.01 0.01 0.01 0.01 0.01 0.01 0.01 0.01 0.01 0.01 0.01 0.01
0.00 0.00 0.00 0.00 0.00 0.01 0.01 0.02 0.02 0.02 0.03 0.05 0.06 0.09 0.10 0.13 0.18 0.24 0.20 0.18 0.20 0.21 0.14 0.08 0.04 0.03 0.02 0.01 0.00 0.00 0.00 0.00 0.00 0.00 0.00 0.00 0.00 0.00 0.00 0.00 0.00 0.00 0.00 0.00 0.00 0.00 0.00 0.00 0.00
0.00 0.00 0.00 0.00 0.00 0.00 0.01 0.01 0.01 0.02 0.02 0.02 0.03 0.05 0.07 0.07 0.07 0.11 0.12 0.16 0.22 0.25 0.16 0.06 0.03 0.02 0.01 0.01 0.00 0.00 0.00 0.00 0.00 0.00 0.00 0.00 0.00 0.00 0.00 0.00 0.00 0.00 0.00 0.00 0.01 0.01 0.00 0.00 0.01
0.00 0.00 0.00 0.01 0.00 0.00 0.00 0.00 0.00 0.01 0.01 0.01 0.02 0.03 0.03 0.03 0.04 0.05 0.06 0.09 0.10 0.12 0.11 0.04 0.02 0.02 0.01 0.01 0.01 0.00 0.00 0.00 0.00 0.00 0.00 0.00 0.00 0.00 0.00 0.00 0.00 0.00 0.00 0.00 0.00 0.00 0.00 0.00 0.00
0.00 0.01 0.01 0.01 0.00 0.00 0.00 0.00 0.00 0.00 0.00 0.01 0.01 0.02 0.02 0.01 0.02 0.03 0.04 0.04 0.03 0.03 0.03 0.02 0.02 0.02 0.01 0.00 0.00 0.00 0.00 0.00 0.00 0.00 0.00 0.00 0.00 0.00 0.00 0.00 0.00 0.00 0.00 0.00 0.00 0.00 0.00 0.00 0.00
0.00 0.01 0.01 0.00 0.00 0.00 0.00 0.00 0.00 0.00 0.00 0.00 0.01 0.01 0.01 0.01 0.01 0.01 0.01 0.01 0.01 0.01 0.01 0.01 0.02 0.01 0.01 0.00 0.00 0.00 0.00 0.00 0.00 0.00 0.00 0.00 0.00 0.00 0.00 0.00 0.00 0.00 0.00 0.00 0.00 0.00 0.00 0.00 0.00
0.01 0.01 0.01 0.01 0.01 0.00 0.00 0.00 0.00 0.00 0.00 0.00 0.01 0.01 0.01 0.01 0.00 0.00 0.00 0.00 0.00 0.00 0.00 0.01 0.01 0.01 0.00 0.00 0.00 0.00 0.00 0.00 0.00 0.00 0.00 0.00 0.00 0.00 0.00 0.00 0.00 0.00 0.00 0.00 0.00 0.00 0.00 0.00 0.00
0.01 0.01 0.01 0.01 0.01 0.00 0.00 0.00 0.00 0.00 0.00 0.00 0.00 0.01 0.01 0.00 0.00 0.00 0.00 0.00 0.00 0.00 0.00 0.00 0.00 0.00 0.00 0.00 0.00 0.00 0.00 0.00 0.00 0.00 0.00 0.00 0.00 0.00 0.00 0.00 0.00 0.00 0.00 0.00 0.00 0.00 0.00 0.00 0.00
0.01 0.01 0.01 0.01 0.01 0.00 0.00 0.00 0.00 0.00 0.00 0.00 0.00 0.00 0.00 0.00 0.00 0.00 0.00 0.00 0.00 0.00 0.00 0.00 0.00 0.00 0.00 0.00 0.00 0.00 0.00 0.00 0.00 0.00 0.00 0.00 0.00 0.00 0.00 0.00 0.00 0.00 0.00 0.00 0.00 0.00 0.00 0.00 0.00
0.01 0.01 0.00 0.00 0.00 0.00 0.00 0.00 0.00 0.00 0.00 0.00 0.00 0.00 0.00 0.00 0.00 0.00 0.00 0.00 0.00 0.00 0.00 0.00 0.00 0.00 0.00 0.00 0.00 0.00 0.00 0.00 0.00 0.00 0.00 0.00 0.00 0.00 0.00 0.00 0.00 0.00 0.00 0.00 0.00 0.00 0.00 0.00 0.00
0.01 0.00 0.00 0.00 0.00 0.00 0.00 0.00 0.00 0.00 0.00 0.00 0.00 0.00 0.00 0.00 0.00 0.00 0.00 0.00 0.00 0.00 0.00 0.00 0.00 0.00 0.00 0.00 0.00 0.00 0.00 0.00 0.00 0.00 0.00 0.00 0.00 0.00 0.00 0.00 0.00 0.00 0.00 0.00 0.00 0.00 0.00 0.00 0.00
MSLP
1010.77 1011.70 1012.68 1013.58 1014.30 1014.78 1015.00 1015.01 1014.87 1014.67 1014.48 1014.34 1014.27 1014.23 1014.18 1014.07 1013.86 1013.54 1013.16 1012.76 1012.43 1012.21 1012.16 1012.29 1012.56 1012.93 1013.33 1013.70 1014.01 1014.22 1014.37 1014.48 1014.59 1014.73 1014.93 1015.18 1015.45 1015.72 1015.96 1016.14 1016.26 1016.33 1016.36 1016.38 1016.41 1016.44 1016.50 1016.55 1016.61
1011.26 1012.31 1013.31 1014.14 1014.69 1014.93 1014.88 1014.61 1014.22 1013.82 1013.50 1013.30 1013.22 1013.22 1013.23 1013.19 1013.05 1012.80 1012.49 1012.18 1011.93 1011.82 1011.88 1012.11 1012.50 1012.97 1013.45 1013.89 1014.25 1014.51 1014.70 1014.84 1014.98 1015.14 1015.34 1015.58 1015.82 1016.05 1016.23 1016.37 1016.45 1016.50 1016.52 1016.56 1016.60 1016.66 1016.74 1016.80 1016.85
1011.91 1013.01 1013.97 1014.66 1014.98 1014.95 1014.60 1014.04 1013.42 1012.85 1012.43 1012.20 1012.15 1012.20 1012.29 1012.33 1012.26 1012.10 1011.87 1011.63 1011.48 1011.46 1011.63 1011.96 1012.45 1013.00 1013.56 1014.06 1014.47 1014.77 1014.99 1015.17 1015.33 1015.51 1015.70 1015.92 1016.13 1016.31 1016.45 1016.54 1016.59 1016.62 1016.65 1016.70 1016.77 1016.86 1016.96 1017.04 1017.09
1012.68 1013.77 1014.61 1015.09 1015.16 1014.84 1014.20 1013.40 1012.59 1011.90 1011.43 1011.21 1011.20 1011.33 1011.50 1011.62 1011.64 1011.55 1011.39 1011.24 1011.16 1011.23 1011.48 1011.90 1012.45 1013.07 1013.67 1014.21 1014.64 1014.97 1015.22 1015.42 1015.59 1015.78 1015.98 1016.17 1016.35 1016.50 1016.60 1016.66 1016.70 1016.73 1016.77 1016.85 1016.95 1017.07 1017.18 1017.27 1017.33
1013.50 1014.48 1015.15 1015.40 1015.21 1014.62 1013.75 1012.76 1011.83 1011.09 1010.63 1010.46 1010.52 1010.73 1010.98 1011.18 1011.26 1011.24 1011.14 1011.05 1011.04 1011.18 1011.49 1011.96 1012.54 1013.18 1013.79 1014.33 1014.76 1015.10 1015.35 1015.56 1015.75 1015.94 1016.14 1016.33 1016.50 1016.63 1016.72 1016.77 1016.80 1016.84 1016.91 1017.01 1017.14 1017.28 1017.41 1017.51 1017.56
1014.24 1015.07 1015.52 1015.53 1015.09 1014.28 1013.25 1012.17 1011.20 1010.49 1010.10 1010.01 1010.16 1010.46 1010.78 1011.03 1011.17 1011.19 1011.15 1011.10 1011.14 1011.32 1011.66 1012.15 1012.73 1013.35 1013.93 1014.44 1014.84 1015.15 1015.39 1015.60 1015.80 1016.00 1016.21 1016.42 1016.59 1016.72 1016.81 1016.87 1016.92 1016.98 1017.07 1017.20 1017.35 1017.50 1017.64 1017.73 1017.77
1014.78 1015.41 1015.63 1015.41 1014.77 1013.83 1012.74 1011.65 1010.75 1010.13 1009.85 1009.87 1010.13 1010.49 1010.87 1011.16 1011.33 1011.38 1011.37 1011.36 1011.43 1011.63 1011.98 1012.45 1013.00 1013.57 1014.09 1014.54 1014.89 1015.16 1015.38 1015.58 1015.79 1016.01 1016.25 1016.47 1016.67 1016.82 1016.92 1017.00 1017.06 1017.14 1017.25 1017.39 1017.55 1017.70 1017.83 1017.91 1017.94
1015.04 1015.44 1015.45 1015.04 1014.28 1013.29 1012.21 1011.22 1010.44 1009.98 1009.84 1009.98 1010.32 1010.75 1011.15 1011.46 1011.64 1011.71 1011.72 1011.74 1011.83 1012.04 1012.38 1012.83 1013.33 1013.82 1014.27 1014.64 1014.94 1015.17 1015.36 1015.56 1015.79 1016.03 1016.29 1016.54 1016.76 1016.94 1017.06 1017.15 1017.22 1017.31 1017.42 1017.56 1017.72 1017.86 1017.97 1018.03 1018.04
1014.97 1015.17 1014.99 1014.45 1013.64 1012.68 1011.71 1010.87 1010.27 1009.98 1009.99 1010.24 1010.65 1011.10 1011.51 1011.81 1011.99 1012.07 1012.10 1012.15 1012.27 1012.49 1012.82 1013.23 1013.67 1014.10 1014.47 1014.77 1015.01 1015.20 1015.39 1015.59 1015.83 1016.10 1016.39 1016.66 1016.90 1017.09 1017.22 1017.31 1017.39 1017.47 1017.57 1017.70 1017.84 1017.96 1018.05 1018.09 1018.08
1014.61 1014.64 1014.32 1013.73 1012.94 1012.07 1011.26 1010.62 1010.22 1010.10 1010.23 1010.56 1010.99 1011.44 1011.83 1012.11 1012.29 1012.37 1012.43 1012.51 1012.66 1012.90 1013.22 1013.60 1014.00 1014.36 1014.67 1014.92 1015.11 1015.29 1015.47 1015.68 1015.94 1016.24 1016.55 1016.84 1017.08 1017.27 1017.40 1017.48 1017.54 1017.61 1017.69 1017.80 1017.91 1018.02 1018.09 1018.12 1018.10
1014.06 1013.95 1013.57 1012.98 1012.27 1011.55 1010.93 1010.49 1010.27 1010.29 1010.51 1010.87 1011.29 1011.70 1012.05 1012.30 1012.46 1012.56 1012.65 1012.77 1012.96 1013.22 1013.55 1013.90 1014.26 1014.58 1014.85 1015.06 1015.24 1015.41 1015.61 1015.84 1016.12 1016.44 1016.75 1017.05 1017.29 1017.47 1017.58 1017.64 1017.68 1017.72 1017.79 1017.87 1017.97 1018.06 1018.13 1018.16 1018.14
1013.45 1013.26 1012.86 1012.32 1011.74 1011.19 1010.76 1010.50 1010.43 1010.54 1010.80 1011.14 1011.51 1011.85 1012.13 1012.34 1012.49 1012.61 1012.74 1012.91 1013.14 1013.42 1013.76 1014.10 1014.43 1014.73 1014.98 1015.18 1015.37 1015.56 1015.78 1016.04 1016.34 1016.66 1016.98 1017.26 1017.49 1017.64 1017.73 1017.78 1017.80 1017.83 1017.87 1017.95 1018.04 1018.14 1018.21 1018.25 1018.24
1012.91 1012.69 1012.32 1011.87 1011.43 1011.05 1010.79 1010.68 1010.70 1010.85 1011.09 1011.36 1011.64 1011.90 1012.10 1012.27 1012.42 1012.56 1012.73 1012.94 1013.20 1013.51 1013.85 1014.18 1014.50 1014.79 1015.04 1015.26 1015.48 1015.70 1015.95 1016.24 1016.56 1016.88 1017.19 1017.45 1017.65 1017.78 1017.86 1017.89 1017.91 1017.93 1017.98 1018.06 1018.17 1018.28 1018.37 1018.43 1018.44
1012.56 1012.33 1012.02 1011.69 1011.39 1011.17 1011.05 1011.03 1011.09 1011.23 1011.40 1011.57 1011.74 1011.90 1012.03 1012.16 1012.30 1012.46 1012.67 1012.91 1013.19 1013.51 1013.83 1014.16 1014.47 1014.76 1015.03 1015.28 1015.54 1015.81 1016.10 1016.42 1016.74 1017.06 1017.34 1017.58 1017.76 1017.87 1017.94 1017.98 1018.01 1018.06 1018.13 1018.24 1018.37 1018.50 1018.62 1018.70 1018.74
1012.42 1012.21 1011.98 1011.76 1011.60 1011.51 1011.49 1011.53 1011.59 1011.67 1011.74 1011.80 1011.85 1011.91 1011.98 1012.08 1012.21 1012.39 1012.61 1012.87 1013.15 1013.45 1013.76 1014.06 1014.36 1014.66 1014.95 1015.25 1015.56 1015.89 1016.22 1016.56 1016.88 1017.18 1017.44 1017.65 1017.81 1017.92 1018.00 1018.06 1018.13 1018.22 1018.33 1018.47 1018.63 1018.79 1018.94 1019.05 1019.11
1012.46 1012.29 1012.14 1012.03 1012.00 1012.02 1012.07 1012.13 1012.17 1012.16 1012.13 1012.07 1012.01 1011.98 1012.00 1012.08 1012.21 1012.40 1012.62 1012.87 1013.13 1013.40 1013.66 1013.94 1014.22 1014.53 1014.86 1015.21 1015.58 1015.95 1016.32 1016.68 1016.99 1017.27 1017.49 1017.67 1017.82 1017.93 1018.03 1018.14 1018.26 1018.40 1018.56 1018.75 1018.94 1019.12 1019.28 1019.40 1019.48
1012.60 1012.48 1012.42 1012.43 1012.51 1012.62 1012.73 1012.79 1012.77 1012.69 1012.54 1012.38 1012.23 1012.13 1012.12 1012.18 1012.32 1012.51 1012.73 1012.95 1013.17 1013.38 1013.60 1013.83 1014.10 1014.41 1014.78 1015.18 1015.61 1016.04 1016.44 1016.80 1017.10 1017.34 1017.53 1017.68 1017.81 1017.93 1018.06 1018.22 1018.39 1018.59 1018.80 1019.02 1019.24 1019.43 1019.60 1019.72 1019.80
1012.74 1012.69 1012.73 1012.86 1013.05 1013.25 1013.40 1013.45 1013.38 1013.21 1012.97 1012.71 1012.49 1012.35 1012.32 1012.38 1012.53 1012.72 1012.93 1013.11 1013.28 1013.43 1013.59 1013.78 1014.03 1014.36 1014.76 1015.22 1015.70 1016.17 1016.60 1016.96 1017.24 1017.44 1017.58 1017.70 1017.81 1017.94 1018.10 1018.30 1018.52 1018.77 1019.03 1019.27 1019.49 1019.68 1019.83 1019.95 1020.02
1012.80 1012.84 1013.00 1013.27 1013.57 1013.85 1014.03 1014.07 1013.95 1013.70 1013.37 1013.04 1012.77 1012.60 1012.57 1012.64 1012.80 1013.00 1013.19 1013.35 1013.46 1013.55 1013.65 1013.81 1014.05 1014.39 1014.83 1015.33 1015.87 1016.38 1016.82 1017.17 1017.41 1017.57 1017.67 1017.74 1017.83 1017.96 1018.14 1018.37 1018.64 1018.93 1019.20 1019.45 1019.67 1019.84 1019.97 1020.07 1020.13
1012.74 1012.90 1013.21 1013.62 1014.05 1014.41 1014.62 1014.64 1014.47 1014.14 1013.73 1013.34 1013.02 1012.84 1012.81 1012.91 1013.10 1013.31 1013.49 1013.62 1013.69 1013.74 1013.80 1013.93 1014.16 1014.52 1014.99 1015.54 1016.11 1016.64 1017.10 1017.43 1017.64 1017.75 1017.79 1017.83 1017.89 1018.01 1018.20 1018.45 1018.74 1019.04 1019.32 1019.57 1019.76 1019.90 1020.01 1020.08 1020.14
1012.56 1012.89 1013.37 1013.94 1014.50 1014.93 1015.17 1015.16 1014.93 1014.52 1014.03 1013.57 1013.22 1013.03 1013.01 1013.14 1013.35 1013.59 1013.78 1013.90 1013.96 1013.97 1014.01 1014.12 1014.35 1014.72 1015.22 1015.79 1016.39 1016.95 1017.40 1017.71 1017.88 1017.95 1017.95 1017.94 1017.98 1018.08 1018.27 1018.53 1018.82 1019.12 1019.40 1019.62 1019.78 1019.90 1019.97 1020.03 1020.09
1012.35 1012.86 1013.53 1014.26 1014.93 1015.44 1015.68 1015.64 1015.33 1014.83 1014.26 1013.73 1013.34 1013.13 1013.13 1013.28 1013.54 1013.80 1014.02 1014.16 1014.22 1014.23 1014.25 1014.36 1014.59 1014.97 1015.48 1016.07 1016.68 1017.24 1017.68 1017.97 1018.12 1018.15 1018.12 1018.08 1018.09 1018.18 1018.35 1018.60 1018.89 1019.18 1019.44 1019.63 1019.77 1019.86 1019.91 1019.96 1020.02
1012.17 1012.87 1013.73 1014.61 1015.39 1015.93 1016.17 1016.06 1015.67 1015.07 1014.41 1013.80 1013.36 1013.14 1013.15 1013.33 1013.63 1013.94 1014.20 1014.37 1014.45 1014.47 1014.50 1014.60 1014.83 1015.21 1015.72 1016.31 1016.92 1017.47 1017.90 1018.18 1018.31 1018.32 1018.27 1018.22 1018.21 1018.29 1018.45 1018.69 1018.97 1019.24 1019.47 1019.64 1019.74 1019.81 1019.85 1019.90 1019.97
1012.10 1012.98 1014.00 1015.00 1015.85 1016.41 1016.60 1016.42 1015.93 1015.22 1014.46 1013.78 1013.29 1013.05 1013.07 1013.29 1013.63 1013.99 1014.30 1014.51 1014.63 1014.67 1014.72 1014.82 1015.05 1015.42 1015.91 1016.49 1017.08 1017.61 1018.03 1018.31 1018.43 1018.44 1018.39 1018.34 1018.34 1018.41 1018.57 1018.79 1019.05 1019.29 1019.50 1019.64 1019.73 1019.78 1019.81 1019.87 1019.95
1012.15 1013.19 1014.32 1015.40 1016.27 1016.80 1016.93 1016.66 1016.06 1015.26 1014.41 1013.66 1013.13 1012.88 1012.91 1013.16 1013.54 1013.96 1014.32 1014.58 1014.74 1014.82 1014.88 1014.99 1015.21 1015.56 1016.03 1016.57 1017.14 1017.65 1018.06 1018.33 1018.47 1018.50 1018.48 1018.44 1018.46 1018.54 1018.69 1018.90 1019.14 1019.36 1019.54 1019.66 1019.72 1019.76 1019.79 1019.84 1019.94
1012.31 1013.44 1014.64 1015.74 1016.58 1017.05 1017.10 1016.73 1016.03 1015.14 1014.22 1013.43 1012.88 1012.63 1012.67 1012.95 1013.37 1013.84 1014.25 1014.57 1014.77 1014.88 1014.96 1015.08 1015.29 1015.61 1016.05 1016.56 1017.09 1017.59 1017.99 1018.27 1018.44 1018.50 1018.51 1018.51 1018.55 1018.65 1018.80 1019.00 1019.22 1019.41 1019.56 1019.66 1019.70 1019.73 1019.75 1019.80 1019.90
1012.52 1013.69 1014.88 1015.93 1016.70 1017.08 1017.03 1016.57 1015.79 1014.84 1013.89 1013.08 1012.53 1012.30 1012.36 1012.67 1013.13 1013.64 1014.09 1014.45 1014.69 1014.84 1014.94 1015.07 1015.27 1015.58 1015.98 1016.46 1016.96 1017.44 1017.84 1018.14 1018.33 1018.43 1018.49 1018.54 1018.61 1018.72 1018.88 1019.07 1019.26 1019.42 1019.54 1019.62 1019.65 1019.65 1019.66 1019.70 1019.79
1012.70 1013.84 1014.96 1015.92 1016.57 1016.84 1016.67 1016.13 1015.31 1014.34 1013.39 1012.61 1012.09 1011.89 1011.99 1012.32 1012.81 1013.34 1013.82 1014.21 1014.49 1014.67 1014.81 1014.95 1015.16 1015.45 1015.84 1016.29 1016.77 1017.23 1017.63 1017.94 1018.16 1018.31 1018.41 1018.50 1018.60 1018.73 1018.89 1019.06 1019.23 1019.37 1019.46 1019.50 1019.51 1019.50 1019.50 1019.52 1019.58
1012.80 1013.85 1014.85 1015.66 1016.16 1016.29 1016.03 1015.43 1014.58 1013.64 1012.74 1012.02 1011.56 1011.41 1011.54 1011.89 1012.39 1012.93 1013.42 1013.83 1014.14 1014.36 1014.53 1014.71 1014.94 1015.24 1015.62 1016.06 1016.53 1016.98 1017.37 1017.70 1017.94 1018.12 1018.25 1018.38 1018.50 1018.64 1018.80 1018.96 1019.10 1019.21 1019.27 1019.29 1019.28 1019.25 1019.23 1019.23 1019.26
1012.79 1013.72 1014.55 1015.17 1015.51 1015.49 1015.14 1014.50 1013.67 1012.79 1011.97 1011.34 1010.96 1010.86 1011.02 1011.38 1011.87 1012.40 1012.89 1013.31 1013.64 1013.89 1014.12 1014.34 1014.61 1014.95 1015.35 1015.79 1016.25 1016.69 1017.08 1017.41 1017.66 1017.85 1018.01 1018.15 1018.29 1018.44 1018.59 1018.73 1018.85 1018.94 1018.98 1018.98 1018.95 1018.90 1018.86 1018.84 1018.85
Thickness
5815 5813 5809 5797 5778 5760 5757 5769 5778 5780 5782 5790 5792 5788 5781 5775 5769 5768 5791 5801 5798 5794 5789 5786 5783 5780 5777 5775 5773 5771 5770 5768 5767 5765 5764 5763 5763 5762 5761 5760 5758 5757 5757 5756 5755 5754 5754 5753 5752
5814 5810 5800 5785 5763 5747 5756 5773 5776 5782 5789 5793 5791 5788 5781 5779 5787 5787 5792 5796 5795 5791 5787 5784 5781 5778 5776 5773 5771 5769 5767 5766 5764 5763 5762 5761 5760 5759 5758 5757 5756 5755 5754 5753 5753 5752 5751 5751 5750
5811 5807 5787 5771 5758 5751 5762 5778 5781 5790 5794 5792 5785 5786 5782 5780 5787 5789 5793 5794 5791 5787 5784 5781 5778 5776 5773 5771 5769 5767 5765 5763 5761 5760 5759 5758 5757 5756 5755 5754 5753 5753 5752 5751 5750 5749 5749 5748 5748
5805 5792 5779 5762 5756 5765 5774 5782 5787 5786 5788 5790 5784 5778 5783 5789 5791 5792 5793 5792 5787 5783 5780 5778 5776 5773 5770 5768 5766 5764 5762 5760 5758 5757 5755 5755 5754 5753 5752 5752 5751 5750 5749 5748 5747 5746 5746 5745 5745
5797 5779 5762 5749 5756 5770 5782 5789 5791 5784 5783 5785 5783 5774 5774 5786 5793 5792 5789 5787 5783 5780 5778 5776 5773 5770 5767 5765 5763 5761 5759 5757 5755 5753 5752 5751 5750 5750 5749 5748 5748 5747 5746 5745 5744 5744 5743 5742 5742
5779 5767 5747 5742 5756 5773 5782 5790 5789 5784 5781 5783 5780 5771 5771 5781 5784 5784 5784 5781 5780 5777 5775 5773 5770 5767 5765 5762 5760 5758 5756 5755 5753 5751 5749 5748 5747 5746 5746 5745 5744 5743 5742 5742 5741 5741 5740 5739 5739
5771 5756 5747 5749 5754 5765 5780 5789 5783 5779 5776 5778 5780 5767 5767 5774 5778 5779 5777 5776 5773 5772 5770 5769 5767 5765 5762 5759 5757 5755 5753 5752 5750 5748 5747 5746 5744 5743 5742 5742 5741 5740 5739 5738 5738 5738 5737 5737 5737
5779 5757 5749 5747 5752 5762 5780 5784 5783 5779 5776 5784 5780 5765 5762 5769 5774 5773 5771 5770 5767 5766 5766 5765 5763 5760 5758 5756 5753 5752 5750 5749 5748 5746 5744 5742 5741 5740 5739 5738 5737 5736 5735 5735 5734 5735 5734 5734 5734
5781 5750 5739 5750 5756 5765 5778 5775 5778 5783 5778 5776 5775 5772 5772 5772 5770 5765 5762 5761 5761 5761 5761 5761 5759 5757 5754 5752 5751 5749 5748 5746 5745 5743 5741 5739 5738 5737 5736 5734 5734 5733 5732 5731 5731 5731 5731 5731 5732
5768 5744 5752 5767 5771 5771 5774 5771 5771 5771 5766 5764 5764 5767 5769 5766 5762 5758 5756 5755 5754 5755 5755 5755 5754 5752 5750 5749 5747 5745 5744 5743 5741 5739 5737 5736 5734 5733 5732 5731 5730 5729 5729 5729 5728 5728 5728 5728 5729
5768 5758 5768 5774 5778 5776 5770 5768 5770 5762 5755 5759 5758 5759 5760 5758 5755 5752 5752 5752 5751 5751 5752 5751 5751 5749 5747 5745 5743 5741 5740 5739 5738 5736 5733 5732 5731 5729 5729 5728 5727 5726 5726 5726 5725 5725 5725 5725 5725
5769 5771 5775 5776 5779 5773 5768 5766 5763 5758 5757 5765 5764 5760 5756 5752 5750 5748 5746 5746 5747 5747 5747 5747 5746 5745 5742 5742 5740 5738 5737 5735 5734 5732 5730 5729 5728 5726 5725 5724 5723 5723 5723 5723 5723 5722 5722 5722 5722
5770 5772 5777 5777 5774 5771 5766 5760 5758 5756 5761 5764 5761 5755 5751 5747 5745 5744 5742 5741 5743 5743 5744 5743 5742 5741 5740 5739 5737 5735 5733 5732 5731 5729 5727 5726 5725 5723 5722 5721 5721 5720 5720 5719 5719 5719 5718 5719 5719
5776 5773 5772 5772 5769 5768 5760 5755 5752 5751 5756 5755 5751 5747 5746 5744 5742 5740 5739 5738 5738 5739 5740 5741 5740 5739 5738 5735 5733 5731 5730 5729 5728 5726 5724 5724 5723 5721 5720 5719 5717 5717 5716 5716 5716 5715 5715 5715 5715
5777 5766 5763 5764 5765 5763 5757 5744 5745 5749 5751 5746 5744 5741 5739 5739 5738 5737 5737 5736 5736 5735 5737 5737 5737 5737 5734 5732 5730 5728 5727 5726 5724 5722 5721 5721 5720 5719 5718 5716 5715 5714 5714 5714 5713 5712 5712 5712 5712
5768 5755 5746 5757 5760 5759 5749 5731 5743 5747 5744 5739 5738 5735 5732 5731 5732 5732 5732 5732 5732 5731 5731 5733 5735 5733 5731 5729 5726 5725 5724 5723 5721 5719 5718 5718 5717 5716 5715 5713 5712 5711 5711 5710 5709 5708 5708 5707 5707
5746 5738 5740 5748 5757 5754 5743 5731 5740 5743 5739 5734 5732 5729 5727 5725 5726 5726 5727 5726 5726 5728 5728 5729 5730 5729 5727 5726 5723 5721 5720 5719 5717 5716 5715 5715 5714 5713 5711 5710 5709 5708 5707 5706 5706 5704 5703 5703 5703
5737 5738 5739 5740 5750 5747 5736 5731 5736 5739 5736 5730 5728 5725 5723 5722 5722 5724 5724 5724 5725 5725 5725 5725 5726 5725 5724 5723 5720 5718 5716 5715 5714 5713 5713 5711 5710 5709 5708 5706 5705 5704 5703 5701 5700 5699 5699 5698 5698
5752 5743 5736 5742 5750 5742 5732 5728 5731 5734 5731 5727 5723 5723 5721 5719 5721 5721 5722 5722 5723 5723 5723 5722 5721 5721 5721 5719 5716 5713 5711 5711 5711 5710 5710 5709 5708 5706 5705 5703 5702 5701 5699 5697 5697 5696 5694 5693 5693
5749 5739 5736 5742 5748 5740 5728 5726 5730 5731 5728 5727 5724 5722 5721 5718 5717 5717 5718 5720 5721 5721 5721 5720 5719 5718 5718 5718 5715 5713 5710 5709 5708 5707 5707 5706 5705 5704 5703 5700 5699 5697 5695 5694 5693 5692 5689 5688 5687
5747 5739 5738 5736 5738 5735 5727 5720 5723 5728 5729 5728 5727 5724 5723 5721 5718 5717 5716 5717 5719 5720 5720 5719 5717 5717 5717 5716 5714 5711 5709 5707 5705 5704 5703 5703 5702 5701 5700 5698 5696 5694 5692 5690 5689 5687 5685 5682 5681
5743 5755 5749 5739 5723 5713 5719 5700 5718 5722 5722 5724 5724 5724 5722 5721 5720 5719 5718 5717 5719 5719 5719 5718 5717 5716 5716 5715 5713 5710 5707 5703 5702 5701 5701 5701 5700 5699 5697 5695 5693 5691 5689 5687 5686 5684 5682 5679 5677
5751 5754 5745 5733 5720 5710 5711 5701 5708 5719 5717 5722 5726 5726 5725 5724 5722 5720 5720 5720 5720 5719 5718 5717 5716 5715 5714 5713 5712 5709 5706 5703 5701 5699 5698 5697 5697 5696 5695 5693 5691 5688 5686 5684 5682 5680 5678 5676 5673
5755 5744 5731 5717 5708 5698 5708 5701 5706 5714 5724 5728 5730 5731 5729 5728 5725 5722 5721 5720 5718 5718 5716 5715 5714 5713 5712 5712 5710 5708 5705 5701 5699 5697 5696 5694 5694 5693 5692 5690 5688 5686 5683 5681 5679 5676 5674 5672 5670
5748 5725 5703 5700 5689 5693 5708 5703 5710 5733 5738 5739 5737 5735 5734 5732 5728 5724 5721 5719 5718 5717 5716 5715 5713 5711 5711 5710 5709 5707 5704 5701 5699 5696 5694 5693 5691 5690 5689 5687 5685 5682 5680 5678 5675 5673 5670 5668 5665
5740 5730 5703 5693 5688 5694 5705 5702 5723 5745 5747 5747 5744 5741 5737 5733 5731 5728 5725 5723 5721 5720 5718 5715 5713 5711 5710 5709 5707 5705 5703 5700 5698 5696 5694 5692 5690 5688 5686 5684 5682 5679 5677 5675 5672 5669 5666 5664 5661
5736 5727 5727 5703 5697 5693 5700 5713 5732 5746 5744 5743 5742 5740 5737 5736 5734 5731 5729 5726 5724 5722 5720 5718 5715 5712 5710 5709 5706 5704 5702 5700 5698 5695 5693 5691 5688 5686 5684 5681 5678 5676 5673 5671 5668 5665 5662 5659 5657
5749 5731 5713 5700 5689 5688 5701 5709 5717 5736 5738 5740 5740 5740 5741 5739 5737 5735 5733 5730 5728 5725 5723 5720 5717 5714 5711 5709 5706 5704 5701 5699 5697 5694 5691 5689 5686 5684 5681 5678 5675 5672 5670 5667 5664 5661 5658 5655 5652
5736 5727 5713 5699 5699 5688 5689 5708 5743 5745 5747 5744 5745 5746 5745 5743 5741 5739 5737 5734 5731 5727 5724 5720 5717 5714 5711 5709 5706 5703 5700 5698 5695 5692 5690 5687 5684 5681 5678 5675 5672 5669 5667 5663 5660 5657 5653 5650 5647
5746 5733 5717 5708 5700 5694 5692 5711 5759 5756 5756 5753 5751 5751 5749 5748 5746 5743 5739 5735 5731 5728 5725 5721 5718 5715 5713 5709 5705 5702 5699 5696 5693 5690 5688 5685 5682 5679 5676 5673 5669 5667 5664 5660 5656 5653 5649 5646 5642